SJV272 WIBB-WIII

Flight info

Callsign SJV272
Flight time N/A
Altitude 29000
Route ISROR T5 BUNIK
Aircraft A320/M-SDE3FGHIRWY/LB1

Departure

Time 2026-05-08 10:32
Airport Sultan Syarif Kasim II International Airport / Roesmin Nurjadin AFB (WIBB)

Arrival

Time N/A
Airport Soekarno-Hatta International Airport (WIII)
Time Latitude Longitude Altitude Speed Heading
2026-05-08 10:06 0.46517 101.44682 111 ft 0 kts 91°
2026-05-08 10:24 0.46517 101.44679 111 ft 2 kts 92°
2026-05-08 10:25 0.46518 101.44664 111 ft 2 kts 91°
2026-05-08 10:25 0.46518 101.44649 111 ft 2 kts 91°
2026-05-08 10:25 0.46519 101.44634 111 ft 2 kts 91°
2026-05-08 10:25 0.46519 101.44624 111 ft 0 kts 91°
2026-05-08 10:26 0.46517 101.44611 111 ft 2 kts 49°
2026-05-08 10:26 0.46506 101.44604 111 ft 0 kts
2026-05-08 10:26 0.46500 101.44604 111 ft 1 kts
2026-05-08 10:26 0.46498 101.44604 111 ft 0 kts
2026-05-08 10:29 0.46503 101.44604 111 ft 3 kts
2026-05-08 10:30 0.46560 101.44601 111 ft 13 kts 355°
2026-05-08 10:30 0.46633 101.44566 111 ft 12 kts 278°
2026-05-08 10:30 0.46642 101.44483 111 ft 12 kts 311°
2026-05-08 10:30 0.46753 101.44469 111 ft 20 kts
2026-05-08 10:31 0.46929 101.44473 111 ft 28 kts
2026-05-08 10:31 0.47064 101.44502 111 ft 8 kts
2026-05-08 10:31 0.47075 101.44479 111 ft 3 kts 214°
2026-05-08 10:31 0.47045 101.44476 111 ft 7 kts 180°
2026-05-08 10:32 0.46720 101.44469 111 ft 88 kts 183°
2026-05-08 10:32 0.45863 101.44444 111 ft 156 kts 182°
2026-05-08 10:32 0.44695 101.44392 535 ft 175 kts 184°
2026-05-08 10:32 0.43491 101.44330 1321 ft 176 kts 183°
2026-05-08 10:33 0.42301 101.44393 2122 ft 176 kts 160°
2026-05-08 10:33 0.41362 101.45184 2620 ft 190 kts 120°
2026-05-08 10:33 0.40782 101.46411 3138 ft 206 kts 111°
2026-05-08 10:33 0.40209 101.47808 3578 ft 230 kts 112°
2026-05-08 10:34 0.39473 101.49292 4137 ft 250 kts 124°
2026-05-08 10:34 0.38458 101.50569 4762 ft 264 kts 131°
2026-05-08 10:34 0.37215 101.51922 5463 ft 277 kts 133°
2026-05-08 10:34 0.35903 101.53333 6404 ft 281 kts 132°
2026-05-08 10:35 0.34593 101.54761 7368 ft 284 kts 132°
2026-05-08 10:35 0.33276 101.56219 8298 ft 287 kts 131°
2026-05-08 10:35 0.31942 101.57712 9212 ft 291 kts 131°
2026-05-08 10:35 0.30599 101.59222 10102 ft 294 kts 131°
2026-05-08 10:36 0.29173 101.60697 10795 ft 304 kts 135°
2026-05-08 10:36 0.27599 101.62204 11240 ft 323 kts 136°
2026-05-08 10:36 0.25947 101.63770 11641 ft 341 kts 136°
2026-05-08 10:36 0.24206 101.65431 12195 ft 353 kts 136°
2026-05-08 10:37 0.22501 101.67079 12925 ft 358 kts 136°
2026-05-08 10:37 0.20727 101.68803 13675 ft 363 kts 136°
2026-05-08 10:37 0.18900 101.70580 14389 ft 369 kts 136°
2026-05-08 10:37 0.17093 101.72337 15061 ft 375 kts 136°
2026-05-08 10:38 0.15293 101.74088 15709 ft 380 kts 136°
2026-05-08 10:38 0.13537 101.75807 16497 ft 379 kts 138°
2026-05-08 10:38 0.11680 101.77609 17426 ft 375 kts 138°
2026-05-08 10:38 0.09833 101.79394 18159 ft 377 kts 138°
2026-05-08 10:39 0.07954 101.81210 18824 ft 380 kts 138°
2026-05-08 10:39 0.06062 101.83041 19463 ft 383 kts 138°
2026-05-08 10:39 0.04151 101.84891 20082 ft 386 kts 138°
2026-05-08 10:39 0.02216 101.86765 20714 ft 389 kts 137°
2026-05-08 10:40 0.00291 101.88631 21331 ft 391 kts 137°
2026-05-08 10:40 -0.01670 101.90533 21942 ft 394 kts 137°
2026-05-08 10:40 -0.03614 101.92418 22528 ft 397 kts 137°
2026-05-08 10:40 -0.05606 101.94350 23112 ft 399 kts 137°
2026-05-08 10:41 -0.07593 101.96278 23677 ft 402 kts 137°
2026-05-08 10:41 -0.09612 101.98238 24222 ft 405 kts 137°
2026-05-08 10:41 -0.11596 102.00157 24740 ft 408 kts 137°
2026-05-08 10:41 -0.13633 102.02120 25251 ft 411 kts 137°
2026-05-08 10:42 -0.15675 102.04090 25742 ft 414 kts 136°
2026-05-08 10:42 -0.17724 102.06070 26216 ft 416 kts 136°
2026-05-08 10:42 -0.19787 102.08065 26666 ft 419 kts 136°
2026-05-08 10:42 -0.21898 102.10094 26924 ft 428 kts 134°
2026-05-08 10:43 -0.24060 102.12193 27142 ft 437 kts 134°
2026-05-08 10:43 -0.26220 102.14295 27515 ft 440 kts 135°
2026-05-08 10:43 -0.28417 102.16433 28021 ft 440 kts 135°
2026-05-08 10:43 -0.30619 102.18574 28493 ft 441 kts 135°
2026-05-08 10:44 -0.32788 102.20682 28779 ft 444 kts 135°
2026-05-08 10:44 -0.37243 102.25003 28819 ft 446 kts 136°
2026-05-08 10:45 -0.41668 102.29294 28823 ft 446 kts 136°
2026-05-08 10:45 -0.46082 102.33575 28824 ft 446 kts 136°
2026-05-08 10:46 -0.50539 102.37899 28825 ft 446 kts 136°
2026-05-08 10:46 -0.54952 102.42182 28825 ft 446 kts 136°
2026-05-08 10:47 -0.59385 102.46484 28825 ft 446 kts 136°
2026-05-08 10:47 -0.63833 102.50801 28825 ft 446 kts 136°
2026-05-08 10:48 -0.68275 102.55112 28825 ft 446 kts 136°
2026-05-08 10:48 -0.72677 102.59385 28825 ft 446 kts 136°
2026-05-08 10:49 -0.77113 102.63692 28825 ft 446 kts 136°
2026-05-08 10:49 -0.81543 102.68008 28825 ft 446 kts 135°
2026-05-08 10:50 -0.85911 102.72274 28825 ft 446 kts 136°
2026-05-08 10:50 -0.90354 102.76599 28825 ft 446 kts 136°
2026-05-08 10:51 -0.94768 102.80888 28825 ft 446 kts 136°
2026-05-08 10:51 -0.99184 102.85177 28825 ft 445 kts 136°
2026-05-08 10:52 -1.03608 102.89472 28825 ft 445 kts 136°
2026-05-08 10:52 -1.08046 102.93782 28825 ft 445 kts 136°
2026-05-08 10:53 -1.12439 102.98036 28824 ft 445 kts 136°
2026-05-08 10:53 -1.16857 103.02297 28822 ft 445 kts 136°
2026-05-08 10:54 -1.21304 103.06601 28819 ft 445 kts 136°
2026-05-08 10:54 -1.25741 103.10904 28814 ft 446 kts 136°
2026-05-08 10:55 -1.30144 103.15178 28809 ft 446 kts 136°
2026-05-08 10:55 -1.34584 103.19489 28804 ft 446 kts 136°
2026-05-08 10:56 -1.39045 103.23820 28800 ft 446 kts 136°
2026-05-08 10:56 -1.43477 103.28126 28797 ft 446 kts 136°
2026-05-08 10:57 -1.47881 103.32403 28796 ft 446 kts 136°
2026-05-08 10:57 -1.54557 103.38890 28796 ft 446 kts 136°
2026-05-08 10:58 -1.58987 103.43194 28796 ft 446 kts 136°
2026-05-08 10:58 -1.63422 103.47502 28796 ft 446 kts 136°
2026-05-08 10:59 -1.67859 103.51814 28796 ft 446 kts 136°
2026-05-08 10:59 -1.72287 103.56116 28796 ft 446 kts 136°
2026-05-08 11:00 -1.76685 103.60390 28796 ft 445 kts 136°
2026-05-08 11:00 -1.81107 103.64687 28796 ft 445 kts 136°
2026-05-08 11:01 -1.85515 103.68993 28796 ft 445 kts 135°
2026-05-08 11:01 -1.89941 103.73314 28796 ft 445 kts 135°
2026-05-08 11:02 -1.96557 103.79753 28796 ft 445 kts 135°
2026-05-08 11:03 -2.00978 103.84051 28796 ft 444 kts 135°
2026-05-08 11:03 -2.05394 103.88345 28797 ft 445 kts 134°
2026-05-08 11:04 -2.09829 103.92658 28797 ft 445 kts 134°
2026-05-08 11:04 -2.14158 103.96851 28796 ft 445 kts 134°
2026-05-08 11:05 -2.18550 104.01102 28796 ft 445 kts 134°
2026-05-08 11:05 -2.22992 104.05414 28796 ft 445 kts 134°
2026-05-08 11:06 -2.27394 104.09693 28796 ft 445 kts 134°
2026-05-08 11:06 -2.31757 104.13936 28796 ft 445 kts 134°
2026-05-08 11:07 -2.36171 104.18230 28795 ft 445 kts 134°
2026-05-08 11:07 -2.40562 104.22505 28796 ft 444 kts 135°
2026-05-08 11:08 -2.44996 104.26824 28796 ft 444 kts 135°
2026-05-08 11:08 -2.49412 104.31119 28797 ft 444 kts 135°
2026-05-08 11:09 -2.53796 104.35382 28797 ft 445 kts 136°
2026-05-08 11:09 -2.58218 104.39682 28796 ft 445 kts 136°
2026-05-08 11:10 -2.62633 104.43977 28796 ft 445 kts 136°
2026-05-08 11:10 -2.67029 104.48255 28796 ft 444 kts 136°
2026-05-08 11:11 -2.71437 104.52546 28796 ft 444 kts 136°
2026-05-08 11:11 -2.75788 104.56783 28796 ft 444 kts 136°
2026-05-08 11:12 -2.80185 104.61066 28796 ft 444 kts 136°
2026-05-08 11:12 -2.84581 104.65345 28796 ft 444 kts 136°
2026-05-08 11:13 -2.88881 104.69560 28797 ft 444 kts 135°
2026-05-08 11:13 -2.93295 104.73880 28808 ft 444 kts 136°
2026-05-08 11:14 -2.97692 104.78170 28817 ft 444 kts 136°
2026-05-08 11:14 -3.02066 104.82433 28821 ft 444 kts 136°
2026-05-08 11:15 -3.06388 104.86646 28822 ft 444 kts 136°
2026-05-08 11:15 -3.10759 104.90907 28823 ft 444 kts 136°
2026-05-08 11:16 -3.14899 104.94918 28823 ft 443 kts 136°
2026-05-08 11:16 -3.19259 104.99150 28823 ft 443 kts 136°
2026-05-08 11:17 -3.23649 105.03422 28822 ft 443 kts 135°
2026-05-08 11:17 -3.28030 105.07689 28822 ft 443 kts 135°